Weather History for KSMQ - October, 2012

Change the Weather History Date:

Wednesday, October 24, 2012

  Actual Average Record
Temperature  
Mean Temperature 60 °F -  
Max Temperature 66 °F 63 °F - (-1)
Min Temperature 53 °F 37 °F - (-1)
Degree Days  
Heating Degree Days 6    
Growing Degree Days 10 (Base 50)    
Moisture  
Dew Point 54 °F    
Average Humidity 84    
Maximum Humidity 96    
Minimum Humidity 68    
Precipitation  
Precipitation 0.00 in - - ()
Sea Level Pressure  
Sea Level Pressure 30.12 in    
Wind  
Wind Speed 2 mph (NE)    
Max Wind Speed 14 mph    
Max Gust Speed 127 mph    
Visibility 7 miles    
Events      
Averages and records for this station are not official NWS values.
T = Trace of Precipitation, MM = Missing Value Source: NWS Daily Summary

Daily Weather History Graph

Daily Weather History Graph

Search for Another Location

Airport or City:

Trip Planner

Search our weather history database for the weather conditions in past years. The results will help you decide how hot, cold, wet, or windy it might be!

Date:

Astronomy

Oct. 24, 2012 Rise Set
Actual Time 7:20 AM EDT 6:04 PM EDT
Civil Twilight 6:52 AM EDT 6:32 PM EDT
Nautical Twilight 6:20 AM EDT 7:04 PM EDT
Astronomical Twilight 5:48 AM EDT 7:36 PM EDT
Moon 3:20 PM EDT 2:11 AM EDT
Length of Visible Light 11h 40m
Length of Day
10h 44m
Waxing Gibbous, 76% of the Moon is Illuminated
Oct 24
Waxing Gibbous
Oct 29
Full
Nov 6
Last Quarter
Nov 13
New
Nov 20
First Quarter

Hourly Weather History & Observations

Time (EDT) Temp. Dew Point Humidity Pressure Visibility Wind Dir Wind Speed Gust Speed Precip Events Conditions
12:53 AM 53.1 °F 52.0 °F 96% 30.08 in 9.0 mi Calm Calm - N/A   Overcast
1:53 AM 55.0 °F 53.1 °F 93% 30.08 in 10.0 mi Calm Calm - N/A   Overcast
2:53 AM 54.0 °F 52.0 °F 93% 30.09 in 10.0 mi Calm Calm - N/A   Overcast
3:53 AM 55.0 °F 53.1 °F 93% 30.08 in 10.0 mi Calm Calm - N/A   Overcast
4:53 AM 55.9 °F 53.1 °F 90% 30.09 in 10.0 mi Calm Calm - N/A   Overcast
5:53 AM 55.9 °F 53.1 °F 90% 30.11 in 8.0 mi Calm Calm - N/A   Overcast
6:53 AM 55.9 °F 53.1 °F 90% 30.11 in 7.0 mi Calm Calm - N/A   Partly Cloudy
7:34 AM 55.4 °F 53.6 °F 94% 30.12 in 5.0 mi Calm Calm - N/A   Mostly Cloudy
7:53 AM 55.9 °F 54.0 °F 93% 30.13 in 4.0 mi Calm Calm - N/A   Overcast
8:53 AM 57.0 °F 54.0 °F 89% 30.14 in 4.0 mi NE 4.6 mph - N/A   Overcast
9:06 AM 57.2 °F 53.6 °F 88% 30.14 in 5.0 mi NE 3.5 mph - N/A   Overcast
9:16 AM 57.2 °F 53.6 °F 88% 30.14 in 5.0 mi NNE 3.5 mph - N/A   Overcast
9:53 AM 57.9 °F 54.0 °F 87% 30.13 in 5.0 mi Calm Calm - 0.00 in   Overcast
10:53 AM 60.1 °F 54.0 °F 80% 30.13 in 6.0 mi Variable 4.6 mph - N/A   Haze
11:53 AM 62.1 °F 55.0 °F 78% 30.12 in 7.0 mi SE 3.5 mph - N/A   Overcast
12:35 PM 62.6 °F 55.4 °F 77% 30.11 in 7.0 mi Calm Calm - N/A   Overcast
12:53 PM 62.1 °F 55.0 °F 78% 30.11 in 7.0 mi Calm Calm - N/A   Overcast
1:53 PM 64.9 °F 55.0 °F 70% 30.09 in 8.0 mi North 4.6 mph - N/A   Mostly Cloudy
2:53 PM 66.0 °F 55.0 °F 68% 30.09 in 9.0 mi NE 5.8 mph - N/A   Mostly Cloudy
3:18 PM 66.2 °F 55.4 °F 68% 30.08 in 9.0 mi NE 3.5 mph - N/A   Scattered Clouds
3:53 PM 66.0 °F 55.9 °F 70% 30.08 in 8.0 mi Variable 3.5 mph - N/A   Clear
4:53 PM 64.4 °F 55.4 °F 73% 30.09 in 7.0 mi Variable 3.5 mph - N/A   Partly Cloudy
5:03 PM 64.4 °F 55.4 °F 73% 30.09 in 7.0 mi NNE 13.8 mph 126.6 mph N/A   Squalls
5:28 PM 62.6 °F 55.4 °F 77% 30.10 in 7.0 mi ENE 4.6 mph - N/A   Mostly Cloudy
5:53 PM 62.1 °F 55.9 °F 80% 30.11 in 6.0 mi Variable 4.6 mph - N/A   Haze
6:53 PM 61.0 °F 55.9 °F 83% 30.14 in 6.0 mi East 4.6 mph - N/A   Haze
7:53 PM 60.1 °F 55.0 °F 83% 30.14 in 6.0 mi Calm Calm - N/A   Haze
8:53 PM 60.1 °F 54.0 °F 80% 30.16 in 8.0 mi East 4.6 mph - N/A   Overcast
9:40 PM 59.0 °F 53.6 °F 82% 30.17 in 9.0 mi Calm Calm - N/A   Overcast
9:53 PM 59.0 °F 55.9 °F 90% 30.17 in 5.0 mi Variable 3.5 mph - N/A   Overcast
10:53 PM 57.9 °F 55.0 °F 90% 30.17 in 6.0 mi Calm Calm - N/A   Overcast
11:53 PM 57.9 °F 55.0 °F 90% 30.18 in 7.0 mi Calm Calm - N/A   Overcast